| time (UTC) | temp C | wind direction | speed KPH | gust KPH | rain 1hr cm | rain 24hr cm | rain mn cm | humidity % | barometer mb |
| 20260504050603 | 7 | 199 | 4.8 | 16.1 | 0.00 | 0.00 | 0.00 | 74 | 1006.7 |
| 20260504050106 | 7 | 205 | 6.4 | 16.1 | 0.00 | 0.00 | 0.00 | 73 | 1006.8 |
| 20260504045611 | 7 | 204 | 4.8 | 16.1 | 0.00 | 0.00 | 0.00 | 72 | 1006.9 |
| 20260504045102 | 7 | 193 | 4.8 | 11.3 | 0.00 | 0.00 | 0.00 | 72 | 1006.9 |
| 20260504044603 | 7 | 188 | 4.8 | 11.3 | 0.00 | 0.00 | 0.00 | 71 | 1006.9 |
| 20260504044444 | 8 | 210 | 4.8 | 12.9 | 0.00 | 0.00 | 0.00 | 70 | 1006.9 |
| 20260504043603 | 8 | 205 | 4.8 | 12.9 | 0.00 | 0.00 | 0.00 | 70 | 1006.9 |
| 20260504043443 | 8 | 197 | 4.8 | 12.9 | 0.00 | 0.00 | 0.00 | 69 | 1007.0 |
| 20260504042624 | 8 | 226 | 4.8 | 12.9 | 0.00 | 0.00 | 0.00 | 69 | 1007.0 |
| 20260504042102 | 8 | 202 | 4.8 | 12.9 | 0.00 | 0.00 | 0.00 | 69 | 1007.0 |
| 20260504041605 | 8 | 196 | 4.8 | 16.1 | 0.00 | 0.00 | 0.00 | 69 | 1006.9 |
| 20260504041446 | 9 | 199 | 6.4 | 17.7 | 0.00 | 0.00 | 0.00 | 68 | 1006.9 |
| 20260504040939 | 9 | 210 | 6.4 | 17.7 | 0.00 | 0.00 | 0.00 | 68 | 1006.9 |
| 20260504040107 | 9 | 221 | 4.8 | 14.5 | 0.00 | 0.00 | 0.00 | 68 | 1006.8 |
| 20260504035605 | 9 | 248 | 4.8 | 12.9 | 0.00 | 0.00 | 0.00 | 68 | 1006.9 |
| 20260504035442 | 9 | 209 | 4.8 | 16.1 | 0.00 | 0.00 | 0.00 | 68 | 1006.8 |
| 20260504034605 | 9 | 198 | 4.8 | 16.1 | 0.00 | 0.00 | 0.00 | 68 | 1006.9 |
| 20260504034104 | 9 | 173 | 4.8 | 14.5 | 0.00 | 0.00 | 0.00 | 67 | 1006.8 |
| 20260504033938 | 9 | 248 | 6.4 | 16.1 | 0.00 | 0.00 | 0.00 | 67 | 1006.9 |
| 20260504033103 | 9 | 230 | 6.4 | 16.1 | 0.00 | 0.00 | 0.00 | 67 | 1006.9 |
| 20260504032938 | 9 | 250 | 4.8 | 16.1 | 0.00 | 0.00 | 0.00 | 67 | 1006.9 |
| 20260504032102 | 9 | 212 | 4.8 | 16.1 | 0.00 | 0.00 | 0.00 | 66 | 1006.8 |
| 20260504031603 | 9 | 246 | 4.8 | 14.5 | 0.00 | 0.00 | 0.00 | 66 | 1006.9 |
| 20260504031102 | 9 | 207 | 4.8 | 14.5 | 0.00 | 0.00 | 0.00 | 65 | 1007.0 |
| 20260504030636 | 9 | 211 | 4.8 | 11.3 | 0.00 | 0.00 | 0.00 | 65 | 1007.0 |
| 20260504030316 | 9 | 202 | 6.4 | 14.5 | 0.00 | 0.00 | 0.00 | 63 | 1007.1 |
| 20260504030220 | 9 | 230 | 4.8 | 14.5 | 0.00 | 0.00 | 0.00 | 64 | 1007.0 |
| 20260504024600 | 9 | 190 | 4.8 | 12.9 | 0.00 | 0.00 | 0.00 | 62 | 1007.1 |
| 20260504024101 | 9 | 175 | 4.8 | 17.7 | 0.00 | 0.00 | 0.00 | 61 | 1007.2 |
| 20260504023602 | 9 | 195 | 6.4 | 17.7 | 0.00 | 0.00 | 0.00 | 61 | 1007.2 |
| 20260504023100 | 9 | 198 | 4.8 | 12.9 | 0.00 | 0.00 | 0.00 | 60 | 1007.2 |
| 20260504022603 | 9 | 240 | 4.8 | 12.9 | 0.00 | 0.00 | 0.00 | 59 | 1007.2 |
| 20260504022534 | 9 | 244 | 4.8 | 12.9 | 0.00 | 0.00 | 0.00 | 59 | 1007.1 |
| 20260504021557 | 9 | 239 | 4.8 | 14.5 | 0.00 | 0.00 | 0.00 | 58 | 1007.2 |
| 20260504021057 | 9 | 218 | 4.8 | 14.5 | 0.00 | 0.00 | 0.00 | 58 | 1007.1 |
| 20260504020557 | 9 | 229 | 6.4 | 19.3 | 0.00 | 0.00 | 0.00 | 58 | 1007.1 |
| 20260504020454 | 9 | 215 | 6.4 | 19.3 | 0.00 | 0.00 | 0.00 | 57 | 1007.1 |
| 20260504015934 | 9 | 216 | 6.4 | 17.7 | 0.00 | 0.00 | 0.00 | 57 | 1007.0 |
| 20260504015059 | 9 | 231 | 6.4 | 22.5 | 0.00 | 0.00 | 0.00 | 57 | 1007.1 |
| 20260504014931 | 9 | 231 | 8.0 | 22.5 | 0.00 | 0.00 | 0.00 | 56 | 1007.1 |
| 20260504014456 | 9 | 227 | 6.4 | 19.3 | 0.00 | 0.00 | 0.00 | 57 | 1007.1 |
| 20260504013553 | 9 | 213 | 6.4 | 16.1 | 0.00 | 0.00 | 0.00 | 57 | 1007.2 |
| 20260504013055 | 9 | 236 | 6.4 | 16.1 | 0.00 | 0.00 | 0.00 | 56 | 1007.1 |
| 20260504012552 | 9 | 211 | 6.4 | 14.5 | 0.00 | 0.00 | 0.00 | 56 | 1007.1 |
| 20260504012520 | 9 | 256 | 6.4 | 14.5 | 0.00 | 0.00 | 0.00 | 56 | 1007.1 |
| 20260504011552 | 9 | 217 | 6.4 | 16.1 | 0.00 | 0.00 | 0.00 | 56 | 1007.1 |
| 20260504011053 | 9 | 206 | 8.0 | 16.1 | 0.00 | 0.00 | 0.00 | 57 | 1007.1 |
| 20260504010553 | 9 | 217 | 8.0 | 19.3 | 0.00 | 0.00 | 0.00 | 56 | 1007.0 |
| 20260504010054 | 8 | 165 | 8.0 | 19.3 | 0.00 | 0.00 | 0.00 | 57 | 1006.9 |
| 20260504005944 | 8 | 205 | 9.7 | 17.7 | 0.00 | 0.00 | 0.00 | 57 | 1006.9 |
| 20260504005051 | 9 | 204 | 8.0 | 17.7 | 0.00 | 0.00 | 0.00 | 57 | 1006.8 |
| 20260504004551 | 9 | 194 | 8.0 | 17.7 | 0.00 | 0.00 | 0.00 | 56 | 1006.8 |
| 20260504004052 | 9 | 187 | 8.0 | 16.1 | 0.00 | 0.00 | 0.00 | 55 | 1006.8 |
| 20260504003547 | 9 | 200 | 8.0 | 16.1 | 0.00 | 0.00 | 0.00 | 55 | 1006.8 |
| 20260504003047 | 9 | 202 | 8.0 | 17.7 | 0.00 | 0.00 | 0.00 | 55 | 1006.8 |
| 20260504002547 | 9 | 198 | 8.0 | 17.7 | 0.00 | 0.00 | 0.00 | 55 | 1006.8 |
| 20260504002523 | 10 | 210 | 8.0 | 24.1 | 0.00 | 0.00 | 0.00 | 55 | 1006.8 |
| 20260504001542 | 10 | 188 | 9.7 | 24.1 | 0.00 | 0.00 | 0.00 | 54 | 1006.8 |
| 20260504001436 | 10 | 173 | 9.7 | 24.1 | 0.00 | 0.00 | 0.00 | 55 | 1006.8 |
| 20260504000544 | 10 | 207 | 8.0 | 24.1 | 0.00 | 0.00 | 0.00 | 55 | 1006.8 |
| 20260504000042 | 10 | 206 | 8.0 | 29.0 | 0.00 | 0.00 | 0.00 | 55 | 1006.8 |
| 20260503235544 | 10 | 197 | 9.7 | 29.0 | 0.00 | 0.00 | 0.00 | 55 | 1006.7 |
| 20260503235110 | 10 | 182 | 9.7 | 29.0 | 0.00 | 0.00 | 0.00 | 55 | 1006.7 |
| 20260503234544 | 10 | 180 | 8.0 | 29.0 | 0.00 | 0.00 | 0.00 | 54 | 1006.7 |
| 20260503234051 | 10 | 186 | 9.7 | 25.7 | 0.00 | 0.00 | 0.00 | 54 | 1006.7 |
| 20260503234043 | 10 | 219 | 9.7 | 20.9 | 0.00 | 0.00 | 0.00 | 55 | 1006.7 |
| 20260503233600 | 10 | 186 | 9.7 | 25.7 | 0.00 | 0.00 | 0.00 | 54 | 1006.7 |
| 20260503232736 | 11 | 186 | 9.7 | 19.3 | 0.00 | 0.00 | 0.00 | 53 | 1006.7 |
| 20260503231541 | 11 | 191 | 11.3 | 24.1 | 0.00 | 0.00 | 0.00 | 53 | 1006.7 |
| 20260503231433 | 11 | 250 | 12.9 | 24.1 | 0.00 | 0.00 | 0.00 | 51 | 1006.7 |
| 20260503230543 | 11 | 185 | 11.3 | 29.0 | 0.00 | 0.00 | 0.00 | 51 | 1006.7 |
| 20260503230418 | 12 | 192 | 9.7 | 29.0 | 0.00 | 0.00 | 0.00 | 50 | 1006.7 |
| 20260503225542 | 12 | 219 | 9.7 | 25.7 | 0.00 | 0.00 | 0.00 | 48 | 1006.7 |
| 20260503225058 | 12 | 198 | 11.3 | 27.4 | 0.00 | 0.00 | 0.00 | 48 | 1006.7 |
| 20260503224542 | 12 | 190 | 11.3 | 27.4 | 0.00 | 0.00 | 0.00 | 46 | 1006.7 |
| 20260503224426 | 12 | 205 | 9.7 | 22.5 | 0.00 | 0.00 | 0.00 | 46 | 1006.7 |
| 20260503223541 | 12 | 191 | 11.3 | 27.4 | 0.00 | 0.00 | 0.00 | 45 | 1006.7 |
| 20260503223419 | 12 | 201 | 9.7 | 27.4 | 0.00 | 0.00 | 0.00 | 45 | 1006.7 |
| 20260503222835 | 12 | 178 | 9.7 | 24.1 | 0.00 | 0.00 | 0.00 | 44 | 1006.7 |
| 20260503222718 | 12 | 202 | 9.7 | 24.1 | 0.00 | 0.00 | 0.00 | 45 | 1006.7 |
| 20260503221540 | 13 | 168 | 11.3 | 27.4 | 0.00 | 0.00 | 0.00 | 45 | 1006.7 |
| 20260503221034 | 13 | 205 | 11.3 | 27.4 | 0.00 | 0.00 | 0.00 | 43 | 1006.8 |
| 20260503220534 | 13 | 197 | 9.7 | 27.4 | 0.00 | 0.00 | 0.00 | 43 | 1006.7 |
| 20260503220034 | 13 | 200 | 9.7 | 24.1 | 0.00 | 0.00 | 0.00 | 44 | 1006.8 |
| 20260503215536 | 13 | 209 | 11.3 | 22.5 | 0.00 | 0.00 | 0.00 | 43 | 1006.7 |
| 20260503215035 | 13 | 207 | 11.3 | 22.5 | 0.00 | 0.00 | 0.00 | 44 | 1006.8 |
| 20260503214535 | 13 | 202 | 9.7 | 22.5 | 0.00 | 0.00 | 0.00 | 42 | 1006.7 |
| 20260503214034 | 13 | 217 | 9.7 | 22.5 | 0.00 | 0.00 | 0.00 | 44 | 1006.8 |
| 20260503213811 | 14 | 212 | 9.7 | 22.5 | 0.00 | 0.00 | 0.00 | 41 | 1006.8 |
| 20260503213703 | 13 | 192 | 9.7 | 22.5 | 0.00 | 0.00 | 0.00 | 42 | 1006.8 |
| 20260503212536 | 14 | 202 | 9.7 | 20.9 | 0.00 | 0.00 | 0.00 | 38 | 1006.7 |
| 20260503212032 | 14 | 184 | 9.7 | 20.9 | 0.00 | 0.00 | 0.00 | 37 | 1006.8 |
| 20260503211532 | 14 | 200 | 8.0 | 20.9 | 0.00 | 0.00 | 0.00 | 35 | 1006.8 |
| 20260503211033 | 14 | 196 | 8.0 | 22.5 | 0.00 | 0.00 | 0.00 | 35 | 1006.9 |
| 20260503210535 | 15 | 227 | 9.7 | 22.5 | 0.00 | 0.00 | 0.00 | 35 | 1006.9 |
| 20260503210031 | 15 | 235 | 8.0 | 22.5 | 0.00 | 0.00 | 0.00 | 36 | 1006.9 |
| 20260503205919 | 14 | 277 | 9.7 | 24.1 | 0.00 | 0.00 | 0.00 | 36 | 1006.9 |
| 20260503205033 | 14 | 212 | 11.3 | 24.1 | 0.00 | 0.00 | 0.00 | 35 | 1007.0 |
| 20260503204533 | 14 | 252 | 8.0 | 19.3 | 0.00 | 0.00 | 0.00 | 37 | 1007.0 |
| 20260503204031 | 13 | 279 | 6.4 | 19.3 | 0.00 | 0.00 | 0.00 | 36 | 1007.0 |
| 20260503203532 | 14 | 248 | 8.0 | 19.3 | 0.00 | 0.00 | 0.00 | 35 | 1007.1 |
| 20260503203032 | 15 | 254 | 8.0 | 19.3 | 0.00 | 0.00 | 0.00 | 37 | 1007.2 |
| 20260503202532 | 15 | 266 | 9.7 | 17.7 | 0.00 | 0.00 | 0.00 | 37 | 1007.2 |
| 20260503202031 | 13 | 214 | 8.0 | 17.7 | 0.00 | 0.00 | 0.00 | 39 | 1007.3 |
| 20260503202011 | 13 | 220 | 6.4 | 19.3 | 0.00 | 0.00 | 0.00 | 39 | 1007.4 |
| 20260503201030 | 14 | 219 | 6.4 | 19.3 | 0.00 | 0.00 | 0.00 | 36 | 1007.4 |
| 20260503200531 | 15 | 189 | 8.0 | 19.3 | 0.00 | 0.00 | 0.00 | 35 | 1007.5 |
| 20260503200033 | 14 | 242 | 8.0 | 20.9 | 0.00 | 0.00 | 0.00 | 40 | 1007.6 |
| 20260503195918 | 13 | 294 | 6.4 | 20.9 | 0.00 | 0.00 | 0.00 | 40 | 1007.6 |
| 20260503195037 | 13 | 209 | 6.4 | 17.7 | 0.00 | 0.00 | 0.00 | 39 | 1007.7 |
| 20260503194532 | 13 | 268 | 8.0 | 20.9 | 0.00 | 0.00 | 0.00 | 37 | 1007.8 |
| 20260503194034 | 14 | 309 | 11.3 | 29.0 | 0.00 | 0.00 | 0.00 | 38 | 1007.9 |
| 20260503193531 | 13 | 277 | 11.3 | 29.0 | 0.00 | 0.00 | 0.00 | 40 | 1008.0 |
| 20260503193031 | 13 | 262 | 9.7 | 24.1 | 0.00 | 0.00 | 0.00 | 40 | 1008.0 |
| 20260503192531 | 13 | 203 | 9.7 | 24.1 | 0.00 | 0.00 | 0.00 | 37 | 1008.1 |
| 20260503192031 | 14 | 244 | 8.0 | 22.5 | 0.00 | 0.00 | 0.00 | 39 | 1008.1 |
| 20260503191957 | 13 | 219 | 8.0 | 19.3 | 0.00 | 0.00 | 0.00 | 43 | 1008.2 |
| 20260503191031 | 13 | 216 | 8.0 | 20.9 | 0.00 | 0.00 | 0.00 | 39 | 1008.3 |
| 20260503190529 | 13 | 248 | 9.7 | 22.5 | 0.00 | 0.00 | 0.00 | 39 | 1008.4 |
| 20260503190030 | 13 | 339 | 8.0 | 25.7 | 0.00 | 0.00 | 0.00 | 42 | 1008.4 |
| 20260503185529 | 13 | 223 | 9.7 | 25.7 | 0.00 | 0.00 | 0.00 | 41 | 1008.5 |
| 20260503185401 | 13 | 218 | 11.3 | 27.4 | 0.00 | 0.00 | 0.00 | 39 | 1008.5 |
| 20260503184528 | 13 | 277 | 11.3 | 27.4 | 0.00 | 0.00 | 0.00 | 40 | 1008.5 |
| 20260503184411 | 13 | 262 | 8.0 | 22.5 | 0.00 | 0.00 | 0.00 | 39 | 1008.6 |
| 20260503183534 | 12 | 309 | 8.0 | 19.3 | 0.00 | 0.00 | 0.00 | 38 | 1008.7 |
| 20260503183144 | 13 | 215 | 6.4 | 22.5 | 0.00 | 0.00 | 0.00 | 45 | 1008.9 |
| 20260503183109 | 13 | 200 | 8.0 | 22.5 | 0.00 | 0.00 | 0.00 | 38 | 1008.8 |
| 20260503181529 | 12 | 250 | 9.7 | 20.9 | 0.00 | 0.00 | 0.00 | 40 | 1009.1 |
| 20260503181029 | 13 | 257 | 6.4 | 20.9 | 0.00 | 0.00 | 0.00 | 39 | 1009.1 |
| 20260503180913 | 13 | 247 | 4.8 | 22.5 | 0.00 | 0.00 | 0.00 | 47 | 1009.1 |
| 20260503180029 | 12 | 217 | 9.7 | 25.7 | 0.00 | 0.00 | 0.00 | 43 | 1009.1 |
| 20260503175530 | 12 | 268 | 9.7 | 25.7 | 0.00 | 0.00 | 0.00 | 42 | 1009.1 |
| 20260503175030 | 12 | 299 | 8.0 | 17.7 | 0.00 | 0.00 | 0.00 | 42 | 1009.1 |
| 20260503174611 | 12 | 273 | 8.0 | 19.3 | 0.00 | 0.00 | 0.00 | 41 | 1009.3 |
| 20260503174157 | 12 | 9 | 9.7 | 19.3 | 0.00 | 0.00 | 0.00 | 44 | 1009.4 |
| 20260503173029 | 12 | 307 | 11.3 | 22.5 | 0.00 | 0.00 | 0.00 | 44 | 1009.3 |
| 20260503172803 | 12 | 238 | 9.7 | 20.9 | 0.00 | 0.00 | 0.00 | 45 | 1009.6 |
| 20260503172657 | 12 | 261 | 11.3 | 22.5 | 0.00 | 0.00 | 0.00 | 45 | 1009.6 |
| 20260503171551 | 12 | 265 | 9.7 | 20.9 | 0.00 | 0.00 | 0.00 | 45 | 1009.7 |
| 20260503171032 | 12 | 246 | 9.7 | 22.5 | 0.00 | 0.00 | 0.00 | 45 | 1009.8 |
| 20260503170532 | 12 | 298 | 9.7 | 22.5 | 0.00 | 0.00 | 0.00 | 46 | 1009.9 |
| 20260503170306 | 12 | 348 | 6.4 | 14.5 | 0.00 | 0.00 | 0.00 | 47 | 1009.9 |
| 20260503170204 | 12 | 256 | 6.4 | 14.5 | 0.00 | 0.00 | 0.00 | 44 | 1009.9 |
| 20260503150525 | 11 | 297 | 6.4 | 17.7 | 0.00 | 0.03 | 0.00 | 53 | 1011.2 |
| 20260503131011 | 8 | 169 | 3.2 | 11.3 | 0.00 | 0.03 | 0.00 | 68 | 1012.1 |
| 20260503130854 | 7 | 234 | 3.2 | 11.3 | 0.00 | 0.03 | 0.00 | 67 | 1012.2 |
| 20260503120140 | 5 | 267 | 3.2 | 11.3 | 0.00 | 0.03 | 0.00 | 78 | 1012.2 |
| 20260503110512 | 3 | 254 | 3.2 | 4.8 | 0.00 | 0.03 | 0.00 | 84 | 1011.9 |
| 20260503110238 | 3 | 255 | 1.6 | 4.8 | 0.00 | 0.03 | 0.00 | 84 | 1012.0 |
| 20260503110136 | 3 | 255 | 3.2 | 4.8 | 0.00 | 0.03 | 0.00 | 84 | 1012.0 |
| 20260503090502 | 2 | 265 | 1.6 | 3.2 | 0.00 | 0.03 | 0.00 | 85 | 1012.0 |
| 20260503081506 | 2 | 265 | 0.0 | 3.2 | 0.00 | 0.03 | 0.00 | 87 | 1012.1 |
| 20260503081006 | 2 | 265 | 0.0 | 3.2 | 0.00 | 0.03 | 0.00 | 87 | 1012.1 |
| 20260503080505 | 3 | 265 | 0.0 | 3.2 | 0.00 | 0.03 | 0.00 | 88 | 1012.1 |
| 20260503080231 | 3 | 265 | 1.6 | 4.8 | 0.00 | 0.03 | 0.00 | 88 | 1012.2 |
| 20260503080127 | 3 | 265 | 1.6 | 4.8 | 0.00 | 0.03 | 0.00 | 88 | 1012.1 |
| 20260503072502 | 3 | 259 | 1.6 | 4.8 | 0.00 | 0.03 | 0.00 | 89 | 1012.1 |
| 20260503072001 | 3 | 259 | 1.6 | 4.8 | 0.00 | 0.03 | 0.00 | 89 | 1012.2 |
| 20260503071503 | 3 | 259 | 1.6 | 3.2 | 0.00 | 0.03 | 0.00 | 89 | 1012.2 |
| 20260503071001 | 3 | 259 | 1.6 | 3.2 | 0.00 | 0.03 | 0.00 | 89 | 1012.1 |
| 20260503070506 | 3 | 259 | 1.6 | 3.2 | 0.00 | 0.03 | 0.00 | 89 | 1012.1 |
| 20260503055006 | 3 | 251 | 1.6 | 3.2 | 0.00 | 0.03 | 0.00 | 89 | 1012.3 |
| 20260503054500 | 3 | 251 | 1.6 | 3.2 | 0.00 | 0.03 | 0.00 | 89 | 1012.4 |